Regional Weather Roundup
Issued by NWS

Home | Current Version | Previous Version | Graphics & Text | Print | Product List | Glossary On
Versions: 1 2 3 4 5 6 7 8 9 10 11 12 13 14 15 16 17 18 19 20 21 22 23 24 25 26 27 28 29 30 31 32 33 34 35 36 37 38 39 40 41 42 43 44 45 46 47 48 49 50
000
ASUS43 KIND 250609
RWRIN

WEATHER ROUNDUP FOR INDIANA
NATIONAL WEATHER SERVICE INDIANAPOLIS IN
200 AM EDT MON MAY 25 2015

NOTE: "FAIR" INDICATES FEW OR NO CLOUDS BELOW 12,000 FEET WITH NO
SIGNIFICANT WEATHER AND/OR OBSTRUCTIONS TO VISIBILITY.

* - STATION DOES NOT REPORT WEATHER SUCH AS PRECIPITATION OR FOG.

+ - STATION NOT QUALITY CONTROLLED BY THE NATIONAL WEATHER SERVICE.
    USE DATA WITH CAUTION...ESPECIALLY DEWPOINT AND RELATIVE
    HUMIDITY OBSERVATIONS.

INZ001>003-010>013-019-020-250700-
NORTHWEST INDIANA

CITY           SKY/WX    TMP DP  RH WIND       PRES   REMARKS
GARY /AIRPORT/ PTCLDY    77  61  59 S10G20    29.92F
KNOX *+        CLEAR     72  55  56 S13       29.96F
LA PORTE +     CLEAR     74  60  60 S12G17    29.97F
6HR MIN TEMP:  74; 6HR MAX TEMP:  82;

MICHIGAN CITY+ CLEAR     73  57  56 S15G22    29.95F
MONTICELLO +   CLEAR     74  61  63 S13G20    29.97F
6HR MIN TEMP:  73; 6HR MAX TEMP:  80;

RENSSELAER +   PTCLDY    72  61  68 S13       29.96F
VALPARAISO     CLEAR     73  60  63 S12G20    29.96F
6HR MIN TEMP:  73; 6HR MAX TEMP:  81;


$$

LMZ046-743>745-250700-
SOUTHERN LAKE MICHIGAN

STATION/POSITION TIME  TEMP    WIND        PRES    WAVE
                       AIR SEA DIR/SP/G            HT
                 (UTC) (F)     (DEG/KT/KT) (MB)    (FT)
BURNS HARBOR     0600   75     180/ 16/ 22 1013.9F
MICHIGAN CITY    0600   74     150/ 15/ 21   N/A
5NW MICH CITY    0600   68 53  190/ 14/ 21   N/A     1

$$

INZ004-005-014>016-021>024-250700-
NORTH CENTRAL INDIANA

CITY           SKY/WX    TMP DP  RH WIND       PRES   REMARKS
GOSHEN         CLEAR     70  56  61 S13       30.00F
6HR MIN TEMP:  70; 6HR MAX TEMP:  79;

LOGANSPORT +   CLEAR     72  54  53 S10       30.01F
PERU/GRISSOM   PTCLDY    71  58  63 S15       30.00F
6HR MIN TEMP:  71; 6HR MAX TEMP:  80;

ROCHESTER +    CLEAR     73  57  56 S9        30.00F
SOUTH BEND     CLEAR     73  57  57 S12       29.98F
6HR MIN TEMP:  73; 6HR MAX TEMP:  81;

WARSAW +       CLEAR     70  55  60 S5        30.01F

$$

INZ006>009-017-018-025>027-250700-
NORTHEAST INDIANA

CITY           SKY/WX    TMP DP  RH WIND       PRES   REMARKS
ANGOLA *+      CLEAR     70  55  60 S8        30.03F
AUBURN +       PTCLDY    72  52  49 S6        30.04F
FORT WAYNE     PTCLDY    70  55  59 S12       30.05F
6HR MIN TEMP:  69; 6HR MAX TEMP:  79;

HUNTINGTON +   CLEAR     70  55  58 S10       30.03F
6HR MIN TEMP:  70; 6HR MAX TEMP:  79;


$$

INZ028-029-035-036-043>045-051>053-250700-
WEST CENTRAL INDIANA

CITY           SKY/WX    TMP DP  RH WIND       PRES   REMARKS
CRAWFORDSVL +  PTCLDY    71  55  56 S13       30.00F
6HR MIN TEMP:  70; 6HR MAX TEMP:  78;

GREENCASTLE +  MOCLDY    72  55  56 S14G20    30.02F
LAFAYETTE      PTCLDY    72  60  66 S8        29.97F
6HR MIN TEMP:  72; 6HR MAX TEMP:  79;

TERRE HAUTE    CLOUDY    75  62  64 S15       30.00F
6HR MIN TEMP:  74; 6HR MAX TEMP:  80;


$$

INZ030>032-037>040-046>048-054>057-064-065-250700-
CENTRAL INDIANA

CITY           SKY/WX    TMP DP  RH WIND       PRES   REMARKS
CP ATTERBURY + PTCLDY    70  57  64 S8        30.06F
FISHERS *+     MOCLDY    72  61  68 S14       30.04F
FRANKFORT +    PTCLDY    73  60  64 SE7       30.03F
6HR MIN TEMP:  71; 6HR MAX TEMP:  82;

GREENWOOD *+   MOCLDY    72  55  56 S8        30.05
INDIANAPOLIS   MOCLDY    73  58  59 S15       30.02F
6HR MIN TEMP:  72; 6HR MAX TEMP:  80;

-EAGLE CREEK   MOCLDY    73  59  61 S7G18     30.03F
6HR MIN TEMP:  73; 6HR MAX TEMP:  80;

KOKOMO *+      PTCLDY    70  57  64 S12       30.02F
6HR MIN TEMP:  70; 6HR MAX TEMP:  81;

MARION +       PTCLDY    70  54  56 S12       30.04F
MT COMFORT *+  MOCLDY    72  46  40 S10       30.06F
SHELBYVILLE    PTCLDY    74  57  55 S10       30.05F
6HR MIN TEMP:  74; 6HR MAX TEMP:  83;

ZIONSVILLE +   MOCLDY    75  56  52 S17G23    30.04F
6HR MIN TEMP:  74; 6HR MAX TEMP:  82;


$$

INZ033-034-041-042-049-050-058-059-250700-
EAST CENTRAL INDIANA

CITY           SKY/WX    TMP DP  RH WIND       PRES   REMARKS
MUNCIE         PTCLDY    73  55  53 S15G23    30.05F
6HR MIN TEMP:  73; 6HR MAX TEMP:  82;


$$

INZ060-061-067>069-081>083-085>088-250700-
SOUTHWEST INDIANA

CITY           SKY/WX    TMP DP  RH WIND       PRES   REMARKS
EVANSVILLE     LGT RAIN  75  65  70 S14G26    30.04R
6HR MIN TEMP:  73; 6HR MAX TEMP:  81; 6HR PCP:  0.13;

HUNTINGBURG *+ CLOUDY    73  63  68 S17G23    30.05S
6HR MIN TEMP:  73; 6HR MAX TEMP:  81;

WASHINGTON +   CLOUDY    74  60  60 S12       30.01F
6HR MIN TEMP:  74; 6HR MAX TEMP:  80;


$$

INZ062-063-066-070>080-084-089>092-250700-
SOUTH CENTRAL AND SOUTHEAST INDIANA

CITY           SKY/WX    TMP DP  RH WIND       PRES   REMARKS
BLOOMINGTON    MOCLDY    73  61  65 S12       30.03F
6HR MIN TEMP:  72; 6HR MAX TEMP:  79; 6HR PCP: TRACE;

MADISON *+     PTCLDY    72  52  49 S10       30.11F
NORTH VERNON + PTCLDY    73  55  53 S9G17     30.09F
SEYMOUR +      MOCLDY    73  57  56 SE9       30.06F

$$



USA.gov is the U.S. government's official web portal to all federal, state and local government web resources and services.